Regional Weather Roundup
Issued by NWS

Home | Current Version | Previous Version | Graphics & Text | Print | Product List | Glossary On
Versions: 1 2 3 4 5 6 7 8 9 10 11 12 13 14 15 16 17 18 19 20 21 22 23 24 25 26 27 28 29 30 31 32 33 34 35 36 37 38 39 40 41 42 43 44 45 46 47 48 49 50
000
ASUS43 KBIS 251710
RWRND

NORTH DAKOTA REGIONAL WEATHER ROUNDUP
NATIONAL WEATHER SERVICE BISMARCK ND
1200 PM CDT TUE APR 25 2017

NOTE: "FAIR" INDICATES FEW OR NO CLOUDS BELOW 12,000 FEET WITH NO
SIGNIFICANT WEATHER AND/OR OBSTRUCTIONS TO VISIBILITY.


NDZ001>003-009>011-017-251800-
NORTHWEST NORTH DAKOTA

CITY           SKY/WX    TMP DP  RH WIND       PRES   REMARKS
WILLISTON      CLOUDY    35  22  58 E8        29.97R
MINOT          CLOUDY    34  25  69 N16       29.93R
MINOT AFB      CLOUDY    33  23  68 NE14      29.94R
$$

NDZ018>021-031>035-040>046-251800-
SOUTHWEST NORTH DAKOTA

CITY           SKY/WX    TMP DP  RH WIND       PRES   REMARKS
BISMARCK       CLOUDY    32  27  81 N13       29.87F
DICKINSON      CLOUDY    26  23  88 N17       29.85S WCI  13
GARRISON         N/A     30  23  75 NE10      29.90R
HETTINGER ARPT CLOUDY    27  25  92 NE13      29.85R FOG     WCI  16
$$

NDZ004>008-012>016-024-026-027-054-251800-
NORTHEAST NORTH DAKOTA

CITY           SKY/WX    TMP DP  RH WIND       PRES   REMARKS
GRAND FORKS    CLOUDY    35  29  78 N28G33    29.81S
GRND FRKS AFB  CLOUDY    32  27  79 NE28G33   29.81F WCI  19
DEVILS LAKE    CLOUDY    30  24  78 NE23G29   29.88R WCI  17
$$

NDZ022-023-025-028>030-036>039-047>053-251800-
SOUTHEAST NORTH DAKOTA

CITY           SKY/WX    TMP DP  RH WIND       PRES   REMARKS
FARGO          CLOUDY    36  31  82 N18G32    29.75R
JAMESTOWN      CLOUDY    32  27  81 N20G29    29.81R
$$





USA.gov is the U.S. government's official web portal to all federal, state and local government web resources and services.